一网星座-0554星 (ONEWEB-0554)

导读 | 星芒AI

ONEWEB-0554 是 OneWeb 卫星通信公司星座计划中的一颗低轨通信卫星,主要用于提供全球宽带互联网服务。该卫星采用标准化设计,搭载先进通信载荷,支持高速数据传输。它于近期成功发射并进入预定轨道,加入 OneWeb 的卫星网络,助力改善偏远地区的网络接入。该星座计划旨在构建覆盖全球的卫星互联网系统,服务于航空、海运及地面用户。

基本信息
目录编号:
56056
目录名称:
ONEWEB-0554
国际标识:
2023-043L
轨道中心:
EARTH
卫星名称:
一网星座-0554星
卫星全名:
一网星座-0554星 (ONEWEB-0554)
卫星状态:
在轨 (已飞行996 天)
发射日期:
2023-03-26 UTC
国别 :
英国 (GB)
星等 :
--
轨道信息
数据来源 国际轨道数据
星历时间: 2025-12-15T15:58:57+0800
18小时前
查看轨道信息
半长轴: 7575.894km
偏心率: 0.0001857
轨道倾角: 87.903°
近地点辐角 81.890°
升交点赤经 265.397°
平近点角 278.244°
近地点: 1196.352km
远地点: 1199.166km
周期: 109.373分钟
每日圈数: 13.165942
详细信息
平衡模式:
三轴稳定
覆盖范围:
全球
运营商:
一网卫星公司
运营商所在国:
英国
制造商(研发单位):
一网卫星公司
制造商所在国:
英国
使用方式:
暂无
卫星简介
OneWeb卫星网络由648颗重约125公斤的微型卫星组成,运行在1200公里的轨道上。 每颗卫星都能够提供至少每秒8千兆位的吞吐量,以使用其高吞吐量的Ku频段有效载荷为家庭和移动平台提供互联网接入。该卫星仍在工作。
2D轨道图
3D轨道图
轨道高度分析图
轨道倾角分析图
轨道综合分析图
查看轨道综合分析图